Flag for Russia Weather past 2 weeks in Sochi, Russia

Now
54 °F

Sprinkles. Overcast.


Feels Like: 51 °F
Forecast: 45 / 58 °F
Wind: 8 mph from Southeast

Location: Adler

Current Time: Apr 1, 2015 at 11:26:00 AM

Latest Report: Apr 1, 2015 at 10:30 AM


Visibility: N/A

Pressure: 29.83 "Hg

Humidity: 82%

Dew point: 48 °F

Location of SochiLocation

Historic Weather in Sochi — Graph

°F

Sochi temperature yesterday

Maximum temperature yesterday: 54 °F (at 11:30 AM)
Minimum temperature yesterday: 46 °F (at 5:30 AM)
Average temperature yesterday: 50 °F

Past Weeks' High & Low Weather Summary

 TemperatureHumidityPressure
High72 °F (Mar 27, 3:30 PM)100% (Mar 18, 1:30 AM)30.36 "Hg (Mar 18, 1:30 AM)
Low37 °F (Mar 25, 6:00 AM)20% (Mar 27, 4:00 PM)29.62 "Hg (Mar 30, 5:30 AM)
Average51 °F74%30.02 "Hg
* Reported Mar 17 10:00 AM — Apr 1 10:30 AM, Sochi, Weather by CustomWeather, © 2015

Note: Actual official high and low records may vary slightly from our data, if they occured in-between our weather recording intervals... More about our weather records

Advertising

Sochi weather history for previous 24 hours

 ConditionsComfort  
Time TempWeatherWind HumidityBarometerVisibility
10:30 AM
Wed, Apr 1
54 °FSprinkles. Overcast.8 mph82%29.83 "HgN/A
10:00 AM54 °FSprinkles. Overcast.3 mph88%29.83 "HgN/A
9:30 AM54 °FSprinkles. Overcast.6 mph88%29.83 "HgN/A
9:00 AM54 °FSprinkles. Overcast.8 mph88%29.80 "HgN/A
8:30 AM52 °FSprinkles. Overcast.8 mph88%29.80 "HgN/A
8:00 AM52 °FSprinkles. Overcast.10 mph88%29.80 "HgN/A
7:30 AM52 °FSprinkles. Overcast.10 mph88%29.80 "HgN/A
7:00 AM52 °FSprinkles. Mostly cloudy.6 mph82%29.80 "HgN/A
6:30 AM50 °FOvercast.3 mph88%29.80 "HgN/A
5:30 AM50 °FOvercast.No wind88%29.77 "HgN/A
5:00 AM50 °FOvercast.No wind88%29.77 "HgN/A
4:30 AM50 °FMostly cloudy.No wind88%29.77 "HgN/A
4:00 AM52 °FMostly cloudy.No wind82%29.77 "HgN/A
3:30 AM50 °FMostly cloudy.1 mph88%29.77 "HgN/A
3:00 AM50 °FOvercast.No wind88%29.77 "HgN/A
2:30 AM50 °FOvercast.No wind88%29.77 "HgN/A
2:00 AM50 °FOvercast.1 mph88%29.77 "HgN/A
1:30 AM50 °FOvercast.1 mph82%29.77 "HgN/A
1:00 AM50 °FOvercast.10 mph82%29.77 "HgN/A
12:30 AM48 °FLow clouds.No wind87%29.77 "Hg6 mi
12:00 AM48 °FPartly cloudy.1 mph87%29.77 "Hg6 mi
11:30 PM
Tue, Mar 31
48 °FPartly cloudy.1 mph87%29.77 "Hg4 mi
11:00 PM46 °FPartly cloudy.1 mph93%29.77 "Hg4 mi
10:30 PM48 °FPassing clouds.3 mph94%29.77 "HgN/A
10:00 PM48 °FPartly cloudy.3 mph94%29.80 "Hg4 mi
9:30 PM46 °FFog.8 mph93%29.80 "Hg2 mi
9:00 PM48 °FFog.No wind94%29.80 "Hg2 mi
8:30 PM48 °FFog.1 mph94%29.80 "Hg2 mi
8:00 PM48 °FFog.3 mph94%29.80 "Hg3 mi
7:30 PM48 °FPartly sunny.3 mph94%29.80 "HgN/A
7:00 PM48 °FBroken clouds.No wind94%29.80 "Hg6 mi
6:30 PM48 °FScattered clouds.3 mph94%29.80 "HgN/A
6:00 PM50 °FScattered clouds.8 mph88%29.80 "HgN/A
5:30 PM50 °FScattered clouds.6 mph88%29.83 "HgN/A
5:00 PM52 °FScattered clouds.8 mph82%29.83 "HgN/A
4:30 PM50 °FLow clouds.8 mph88%29.83 "HgN/A
4:00 PM50 °FLow clouds.6 mph88%29.86 "HgN/A
3:30 PM50 °FLow clouds.6 mph88%29.86 "HgN/A
3:00 PM50 °FLow clouds.6 mph88%29.86 "HgN/A
2:30 PM52 °FPartly sunny.8 mph82%29.89 "HgN/A
2:00 PM52 °FPartly sunny.8 mph82%29.89 "HgN/A
1:30 PM54 °FScattered clouds.8 mph77%29.89 "HgN/A
1:00 PM54 °FScattered clouds.10 mph77%29.89 "HgN/A
12:30 PM54 °FScattered clouds.10 mph77%29.89 "HgN/A
12:00 PM54 °FScattered clouds.8 mph77%29.89 "HgN/A
11:30 AM54 °FScattered clouds.8 mph77%29.89 "HgN/A
11:00 AM52 °FBroken clouds.8 mph82%29.89 "HgN/A
Weather by CustomWeather, © 2015

See weather overviewHow to use our weather pages